Location: *
(51.0938°N, 1.8058°W)
Time: 19:15:57
(UTC+00:00)

Daily predictions for brighter satellites

Satellite Brightness Start Highest point End
(mag) Time Altitude Azimuth Time Altitude Azimuth Time Altitude Azimuth
In-Cosmos 22 Rocket 4.5 20:47:33 10° SSE 20:52:45 49° E 20:58:06 10° NNE
Timation 1 Rocket 4.5 20:47:33 10° NNW 20:53:36 77° ENE 20:59:35 10° SE
Thor Agena Rocket 4.4 20:52:50 10° NNE 20:57:18 30° E 21:01:43 10° SSE
Okean 3 Rocket 3.7 20:56:35 10° S 21:01:09 87° E 21:05:43 10° N
Cosmos 1892 3.1 21:02:04 10° SSE 21:05:44 45° E 21:09:26 10° NNE
Cosmos 2251 Rocket 3.5 21:00:45 10° SSW 21:05:57 70° ESE 21:11:11 10° NNE
SL-23 DEB 4.1 21:00:54 10° WNW 21:06:13 61° SSW 21:09:39 10° ESE
ISS -1.9 21:06:39 10° SSE 21:08:08 12° SE 21:09:37 10° ESE
Cosmos 1464 Rocket 4.1 21:02:17 10° S 21:08:30 68° E 21:14:41 10° NNE
Lacrosse 5 3.1 21:05:03 10° W 21:09:57 46° N 21:14:51 10° ENE
Cosmos 1238 Rocket 4.2 21:03:30 10° S 21:10:02 70° E 21:16:36 10° NNE
Cosmos 1743 Rocket 4.4 21:09:44 10° SSE 21:13:40 33° E 21:17:35 10° NNE
Landsat 7 3.9 21:10:28 10° SSE 21:15:12 72° ENE 21:19:58 10° N
Cosmos 2151 3.0 21:11:46 10° S 21:16:03 82° E 21:20:23 10° NNE
Cosmos 1515 Rocket 3.6 21:15:11 10° N 21:19:34 66° ENE 21:23:52 10° SSE
Iridium 4 Rocket 4.0 21:13:41 10° N 21:19:37 84° W 21:25:29 10° S
Cosmos 2084 3.6 21:15:36 10° SW 21:20:07 83° NW 21:24:32 10° NE
USA 245 2.6 21:20:07 10° S 21:22:18 50° WSW 21:24:29 10° NNW
SL-8 R/B 3.7 21:17:37 10° W 21:22:21 63° S 21:27:04 10° ESE
ERS-1 Rocket 3.0 21:17:59 10° SSE 21:23:02 86° ENE 21:28:06 10° NNW
Cosmos 1766 Rocket 3.8 21:20:45 10° SSW 21:25:04 74° W 21:29:26 10° N
Aureole 1 Rocket 3.8 21:22:10 10° SSW 21:27:05 87° WNW 21:33:43 10° NNE
SPOT 1/Viking Rocket 3.6 21:23:03 10° SSE 21:28:14 89° WSW 21:33:29 10° NNW
Cosmos 1933 3.7 21:25:23 10° N 21:29:22 50° ENE 21:32:51 13° SSE
CZ-2C R/B 4.4 21:26:57 10° SSW 21:31:57 37° W 21:36:44 10° NNW
Cosmos 1242 Rocket 3.1 21:29:18 10° SSW 21:32:55 63° WNW 21:36:36 10° N
Cosmos 1408 Rocket 3.6 21:29:38 10° S 21:33:56 85° W 21:38:17 10° N
IGS 5A 3.5 21:30:08 10° SSE 21:34:18 87° WSW 21:38:31 10° NNW
Cosmos 2228 Rocket 3.2 21:30:14 10° N 21:34:46 69° ENE 21:38:56 12° SSE
Cosmos 2360 Rocket 2.7 21:32:28 10° S 21:37:42 41° ESE 21:42:56 10° NE
ADEOS Rocket 3.7 21:33:33 10° N 21:39:09 53° WNW 21:44:29 10° SW
Resurs 01 Rocket 4.2 21:37:33 10° SW 21:40:33 18° W 21:43:33 10° NW
Cosmos 1818 4.3 21:35:58 10° NW 21:41:17 48° NE 21:46:34 10° ESE
Cosmos 292 Rocket 4.2 21:36:33 10° NNW 21:41:19 52° ENE 21:45:20 14° SE
Cosmos 1980 Rocket 3.8 21:37:26 10° WSW 21:42:40 38° NW 21:47:54 10° NNE
USA 215 3.7 21:37:13 10° ENE 21:43:43 69° NNW 21:50:14 10° W
Terra 1.9 21:40:02 13° SSE 21:44:14 72° ENE 21:49:01 10° N
Cosmos 1606 3.1 21:41:50 10° N 21:45:31 47° ENE 21:48:14 16° SE
Meteor 1-26 Rocket 4.3 21:49:13 10° N 21:54:56 70° ENE 21:59:28 16° SSE
Gbstr 26 Del rocket 2.6 21:52:16 10° WSW 21:56:06 61° SSE 21:59:48 10° ENE
Meteor 2-3 Rocket 4.1 21:51:22 13° SSE 21:56:20 49° E 22:01:56 10° NNE
CARTOSAT-1 3.8 21:52:40 13° S 21:56:32 67° WSW 22:00:52 10° NNW
Cosmos 44 Rocket 3.4 21:51:46 10° SSW 21:56:51 66° SE 22:01:51 10° NE
Cosmos 921 Rocket 4.1 21:53:09 10° NW 21:57:05 38° WSW 22:01:01 10° S
CZ-2C R/B 3.0 21:56:06 10° N 22:01:20 64° WNW 22:06:27 10° SSW
Cosmos 44 4.4 21:56:40 10° WSW 22:01:44 50° NW 22:06:33 10° NE
Cosmos 1408 2.7 22:01:59 11° SSW 22:05:35 80° WNW 22:09:20 10° N
Cosmos 2322 Rocket 2.5 22:01:00 10° SW 22:06:42 72° WNW 22:12:26 10° NNE
Cosmos 2333 Rocket 3.4 22:04:57 17° SE 22:07:52 25° ESE 22:12:24 10° NE
Mayak 0.1 22:04:45 10° NE 22:08:15 24° E 22:10:09 18° SE
Cosmos 2219 Rocket 3.3 22:06:34 17° SE 22:09:31 26° ESE 22:14:08 10° NE
Cosmos 1627 Rocket 4.5 22:04:09 10° N 22:10:20 81° E 22:15:18 17° SSE
Cosmos 2278 Rocket 3.3 22:05:11 10° NNW 22:10:25 36° NE 22:15:33 10° ESE
SL-16 R/B 2.8 22:05:39 10° SW 22:11:16 61° NW 22:16:55 10° NNE
Cosmos 1356 Rocket 3.9 22:09:38 10° NNW 22:13:51 60° W 22:17:11 16° S
Cosmos 1825 2.2 22:11:37 14° SSW 22:14:50 84° WNW 22:18:38 10° N
Tiangong 2 3.4 22:14:08 10° SW 22:14:47 11° SSW 22:14:47 11° SSW
Lacrosse 5 rocket 2.9 22:15:18 10° WNW 22:19:42 41° N 22:24:01 10° ENE
ATLAS 5 CENTAUR R/B 4.3 22:15:57 10° NW 22:20:07 24° NNE 22:24:47 10° ENE
Cosmos 2322 3.9 22:16:22 12° S 22:21:24 54° ESE 22:26:56 10° NE
SPOT 5 3.9 22:17:05 11° SSW 22:21:46 41° W 22:26:23 10° NNW
Cosmos 676 Rocket 4.5 22:18:40 19° SSE 22:22:01 42° ESE 22:26:57 10° NE
Cosmos 1500 Rocket 4.1 22:20:27 10° SSW 22:24:51 59° WNW 22:29:18 10° N
Sich 1 3.4 22:23:01 22° SSE 22:25:27 47° E 22:29:34 10° NNE
Helios 1B rocket 4.1 22:25:35 10° NE 22:28:34 19° E 22:29:54 16° ESE
Cosmos 1844 Rocket 2.9 22:24:04 10° NW 22:29:41 63° WSW 22:33:35 20° S
ATLAS CENTAUR R/B 3.0 22:25:35 10° NNW 22:30:05 36° NE 22:34:19 10° E
NOSS 3-1 (C) 3.6 22:26:24 13° SSW 22:31:14 47° ESE 22:37:22 10° NE
Cosmos 2279 Rocket 4.2 22:27:58 19° SSE 22:32:22 58° E 22:38:26 10° NNE
IRAS Rocket 4.4 22:28:26 19° S 22:32:32 73° WSW 22:38:12 10° NNW
Cosmos 2263 Rocket 4.4 22:29:16 10° WNW 22:32:34 16° W 22:35:52 10° SW
Cosmos 1782 2.8 22:31:04 10° N 22:35:08 82° E 22:37:20 26° SSE
SL-19 R/B 3.8 22:31:51 10° NNE 22:35:19 68° ESE 22:36:44 29° S
ASTEX 1 3.4 22:30:55 10° N 22:35:57 89° E 22:39:36 19° S
Meteor 1-10 Rocket 4.5 22:31:21 10° N 22:36:55 60° ENE 22:40:37 22° SSE
Cosmos 1954 Rocket 4.2 22:34:38 20° S 22:38:00 52° ESE 22:43:08 10° NNE
Cosmos 2084 Rocket 3.4 22:33:46 10° NW 22:38:10 76° SW 22:40:35 25° SE
SL-4 R/B 3.1 22:35:34 13° SSW 22:39:11 31° SE 22:43:20 10° E
Cosmos 2237 4.2 22:36:02 10° SSW 22:41:44 85° WNW 22:47:28 10° NNE
ISS -3.6 22:40:59 10° SW 22:44:13 48° SSE 22:47:28 10° E
Cosmos 1400 Rocket 4.4 22:40:48 10° N 22:44:22 27° ENE 22:46:38 17° ESE
Cosmos 1862 4.3 22:43:09 24° SE 22:44:39 32° E 22:48:14 10° NNE
Akebono 4.5 22:44:03 10° NNW 22:46:12 53° ENE 22:46:42 42° ESE
BREEZE-M DEB (TANK) 1.7 22:44:17 10° WSW 22:46:24 56° S 22:49:12 10° E
Cosmos 407 Rocket 3.7 22:44:11 10° SSW 22:49:29 74° WNW 22:54:52 10° NNE
Cosmos 1707 Rocket 3.7 22:48:17 10° NNW 22:52:43 70° W 22:55:14 25° S
Cosmos 1140 Rocket 3.4 22:48:59 16° SSW 22:53:08 84° ESE 22:58:23 10° NNE
Cosmos 1190 Rocket 4.2 22:48:21 10° SSW 22:53:33 74° WNW 22:58:48 10° NNE
Lacrosse 5 2.8 22:48:44 10° WNW 22:53:40 48° NNE 22:58:35 10° E
Cosmos 1812 3.9 22:53:46 10° N 22:57:17 32° ENE 22:59:00 22° ESE
Cosmos 1607 4.2 22:54:08 10° NW 23:00:09 57° WSW 23:03:47 24° SSE
COSMOS 2428 2.8 22:56:17 20° S 23:00:10 61° ESE 23:05:50 10° NE
MOS 1 Rocket 4.0 22:56:12 10° N 23:00:26 48° WNW 23:04:34 12° SW
Meteor 2-6 Rocket 4.1 22:56:29 10° NNW 23:01:56 84° W 23:05:13 25° S
Cosmos 1634 Rocket 4.5 22:56:50 11° SSW 23:02:44 59° WNW 23:08:54 10° N
Cosmos 1844 4.3 22:57:47 10° NW 23:03:06 45° WSW 23:06:20 22° S
SL-16 R/B 4.2 23:02:03 10° ESE 23:03:48 12° E 23:05:39 10° ENE
SL-8 R/B 4.3 23:00:08 10° W 23:04:30 36° SSW 23:06:00 29° SSE
Cosmos 1655 Rocket 4.0 23:00:05 10° NNW 23:06:23 81° W 23:10:23 24° S
USA 229 DEB 3.6 23:01:06 10° SW 23:07:45 86° SE 23:14:46 10° NE
USA 229 3.6 23:01:13 10° SW 23:07:52 86° SE 23:14:52 10° NE
ERS-2 3.4 23:09:02 21° ESE 23:10:45 32° ENE 23:14:04 10° N
NOSS 3-1 (A) 3.5 23:07:04 20° SSW 23:10:55 56° SE 23:17:18 10° NE
Cosmos 2242 Rocket 3.8 23:08:52 10° N 23:13:23 64° ENE 23:15:33 30° SSE
Cosmos 1980 4.5 23:11:32 25° SSE 23:13:54 36° ESE 23:19:02 10° NE
Cosmos 841 Rocket 4.5 23:09:21 10° NNW 23:14:13 40° NE 23:17:55 16° ESE
Nimbus 7 Rocket 4.4 23:08:29 10° NNE 23:14:26 86° ESE 23:18:34 21° SSW
Helios 1A 3.5 23:12:39 27° SSW 23:14:39 50° W 23:18:44 10° NNW
YAOGAN 11 4.0 23:13:01 31° SSE 23:15:02 85° WSW 23:19:23 10° NNW
ARGOS Delta rocket 3.6 23:13:31 31° S 23:15:39 86° WSW 23:20:14 10° NNW
Meteor 1-29 3.8 23:14:24 10° NNE 23:17:37 35° E 23:18:15 32° ESE
Cosmos 2360 Rocket 3.3 23:16:19 10° WSW 23:21:42 43° NW 23:27:05 10° NNE
Cosmos 2237 Rocket 2.9 23:19:28 26° SSE 23:21:47 38° ESE 23:26:56 10° NE
Terra 4.0 23:19:21 10° SW 23:22:31 17° W 23:25:41 10° NW
NOSS 2-3 (E) 4.4 23:21:21 31° SSE 23:22:43 38° ESE 23:27:33 10° NE
Cosmos 468 Rocket 4.0 23:17:30 10° NNW 23:22:48 88° ENE 23:25:40 28° SSE
SeaSat 1 2.7 23:18:09 10° NE 23:23:01 53° ESE 23:25:19 29° S
NOSS 0 Rocket 4.2 23:20:00 26° S 23:23:13 49° ESE 23:29:07 10° NE
Cosmos 1763 Rocket 3.6 23:18:28 10° NNW 23:23:39 70° ENE 23:26:38 26° SE
Cosmos 1818 4.2 23:19:43 10° NW 23:24:51 42° WSW 23:27:17 27° S
Cosmos 1703 Rocket 4.3 23:20:56 10° N 23:25:14 45° ENE 23:27:21 26° SE
NOSS 2-3 (D) 4.4 23:24:07 31° SSE 23:25:25 37° ESE 23:30:13 10° NE
NOSS 8 (A) 4.0 23:24:18 35° SW 23:25:29 88° SE 23:28:40 10° NE
USA 215 4.1 23:20:02 10° ENE 23:26:21 54° N 23:32:41 10° WNW
Meteor 1-27 Rocket 3.8 23:22:33 10° NNW 23:28:27 90° WNW 23:31:49 27° S
Cosmos 2208 Rocket 4.2 23:23:06 10° NNW 23:28:35 72° ENE 23:31:46 25° SE
ALOS 2 2.5 23:28:50 33° S 23:30:46 84° WSW 23:35:12 10° NNW
Cosmos 1666 Rocket 4.4 23:34:07 20° SW 23:36:59 46° WNW 23:41:20 10° N
GP-B 3.1 23:32:46 10° N 23:37:15 84° W 23:39:14 33° S
SL-24 R/B - RUBIN 2 4.3 23:32:13 10° NW 23:37:52 79° NE 23:42:31 19° SE
Cosmos 1933 Rocket 3.6 23:37:12 34° S 23:39:01 72° E 23:43:26 10° NNE
Cosmos 1633 Rocket 3.7 23:38:32 22° SW 23:41:03 49° WNW 23:45:17 10° N
Cosmos 1932 4.5 23:35:12 10° NW 23:41:38 80° SW 23:45:48 24° SSE
Gbstr 26 Del rocket 2.7 23:39:05 10° W 23:42:50 79° N 23:46:43 10° E
Cosmos 1570 Rocket 4.0 23:37:43 10° NNW 23:42:59 80° WSW 23:45:35 30° SSE
Mayak -0.2 23:39:59 10° N 23:43:59 41° WNW 23:46:45 18° SW
Cosmos 2297 4.2 23:40:25 10° NNW 23:46:00 57° NE 23:50:12 18° SE
CZ-4 R/B 4.1 23:43:10 10° NNE 23:47:45 54° E 23:49:40 32° SSE
Cosmos 1862 Rocket 4.3 23:45:19 10° NNW 23:49:26 43° W 23:51:14 28° SW
ATLAS 3B R/B 4.4 23:43:59 10° NW 23:49:54 32° NNE 23:55:49 10° E
Cosmos 1867 3.6 23:47:47 28° SSW 23:50:36 62° SE 23:56:02 10° NE
Okean 1-7 3.2 23:46:21 10° N 23:50:38 64° ENE 23:52:25 33° SSE
Cosmos 2333 Rocket 2.5 23:46:54 15° SW 23:51:41 68° WNW 23:57:23 10° NNE
Cosmos 2219 Rocket 2.5 23:48:14 14° SW 23:53:03 65° NW 23:58:43 10° NNE
Cosmos 1633 3.1 23:54:35 31° SW 23:55:53 49° WNW 23:59:22 10° N
